This demonstration page uses our WeatherBlox Daily Observations layout. Learn more.

Left ArrowRight Arrow

Hourly Observations for June 12, 2019

Temp ( °F °C ) Dew Point ( °F °C ) Humidity (%) Winds ( mph kmh ) Pressure ( in mb ) Visibility ( mi km ) Precip ( " mm )
12:59 am 00:59 Mostly Clear 70 21.1 53 11.7 55 55 NE 5 7 30.11 1020 10 16 0.00 0.00
1:59 am 01:59 Mostly Clear 70 21.1 53 11.7 55 55 ENE 7 11 30.10 1019 10 16 0.00 0.00
2:59 am 02:59 Mostly Clear 65 18.3 55 12.8 70 70 E 3 6 30.09 1019 10 16 0.00 0.00
3:59 am 03:59 Mostly Clear 62 16.7 56 13.3 80 80 Calm 30.10 1019 10 16 0.00 0.00
4:59 am 04:59 Partly Cloudy 70 21.1 55 12.8 59 59 ENE 12 19 30.09 1019 10 16 0.00 0.00
5:59 am 05:59 Partly Cloudy 70 21.1 55 12.8 59 59 E 12 19 30.11 1020 10 16 0.00 0.00
6:59 am 06:59 Partly Cloudy 70 21.1 56 13.3 61 61 E 16 26 30.12 1020 10 16 0.00 0.00
7:59 am 07:59 Mostly Cloudy 72 22.2 55 12.8 55 55 ENE 15 24 30.14 1021 10 16 0.00 0.00
8:59 am 08:59 Mostly Cloudy 72 22.2 57 13.9 59 59 E 16 26 30.15 1021 10 16 0.00 0.00
9:59 am 09:59 Mostly Cloudy 72 22.2 60 15.6 66 66 E 13 20 30.15 1021 10 16 0.00 0.00
10:59 am 10:59 Mostly Cloudy 73 22.8 62 16.7 69 69 E 16 26 30.15 1021 10 16 0.00 0.00
11:59 am 11:59 Mostly Cloudy 75 23.9 61 16.1 62 62 E 15 24 30.14 1021 10 16 0.00 0.00
12:59 pm 12:59 Mostly Cloudy 74 23.3 60 15.6 62 62 E 17 28 30.12 1020 10 16 0.00 0.00
1:59 pm 13:59 Cloudy 74 23.3 58 14.4 57 57 E 15 24 30.11 1020 10 16 0.00 0.00
2:59 pm 14:59 Cloudy 74 23.3 57 13.9 56 56 E 16 26 30.09 1019 10 16 0.00 0.00
3:59 pm 15:59 Cloudy 74 23.3 60 15.6 62 62 E 14 22 30.08 1019 10 16 0.00 0.00
4:59 pm 16:59 Mostly Cloudy 73 22.8 62 16.7 69 69 E 14 22 30.05 1018 10 16 0.00 0.00
5:59 pm 17:59 Mostly Cloudy 72 22.2 63 17.2 73 73 E 13 20 30.03 1017 10 16 0.00 0.00
6:59 pm 18:59 Cloudy 72 22.2 65 18.3 79 79 E 9 15 30.02 1017 10 16 0.00 0.00
7:59 pm 19:59 Cloudy 71 21.7 65 18.3 81 81 E 8 13 30.01 1016 10 16 0.00 0.00
8:59 pm 20:59 Cloudy with Light Rain 70 21.1 65 18.3 84 84 SE 13 20 30.01 1016 6 10 0.01 0.25
9:59 pm 21:59 Cloudy 69 20.6 67 19.4 93 93 ESE 6 9 29.99 1016 10 16 0.05 1.27
10:59 pm 22:59 Cloudy 68 20 65 18.3 90 90 ENE 5 7 29.96 1015 7 11 0.00 0.00
11:59 pm 23:59 Cloudy 68 20 66 18.9 93 93 Calm 29.93 1014 9 14 0.00 0.00

Powered by AerisWeather